Station Historical Data
Daily Summary for October 7, 2017 Units:  English    Metric   Both
« Previous Day
Next Day »
Daily Weekly Monthly Yearly Custom
  High: Low: Average:
Temperature: 80.9 °F 70.7 °F 74.4 °F
Dew Point: 71.1 °F 63.9 °F 68.7 °F
Humidity: 91% 70% 83%
Wind Speed: 12.0mph 6.0mph 9.3mph
Wind Gust: 12.0mph - -
Wind- - ESE
Pressure: 30.04 in 29.92 in -
Precipitation: 0.00 in    
Historical Graphs
 
 
Tabular Data for October 7, 2017
Time Temperature Dew Point Pressure Wind Wind Speed Wind Gust Humidity Rainfall Rate (Hourly) solar Conditions
00:00 71.2 °F 64.3 °F 30.03 in East 6.0 mph 6.0 mph 79% 0.00 in WeatherDisplay:10.37 W/m2 OVC
00:05 71.2 °F 64.4 °F 30.03 in East 6.0 mph 6.0 mph 79% 0.00 in WeatherDisplay:10.37 W/m2 OVC
00:10 71.2 °F 64.4 °F 30.03 in East 6.0 mph 6.0 mph 79% 0.00 in WeatherDisplay:10.37 W/m2 OVC
00:15 71.2 °F 64.4 °F 30.03 in East 6.0 mph 6.0 mph 79% 0.00 in WeatherDisplay:10.37 W/m2 OVC
00:20 71.1 °F 63.9 °F 30.03 in East 6.0 mph 6.0 mph 78% 0.00 in WeatherDisplay:10.37 W/m2 OVC
00:25 71.0 °F 64.2 °F 30.03 in East 6.0 mph 6.0 mph 79% 0.00 in WeatherDisplay:10.37 W/m2 OVC
00:30 70.9 °F 64.1 °F 30.03 in East 6.0 mph 6.0 mph 79% 0.00 in WeatherDisplay:10.37 W/m2 OVC
00:40 70.9 °F 64.0 °F 30.03 in East 6.0 mph 6.0 mph 79% 0.00 in WeatherDisplay:10.37 W/m2 OVC
00:45 70.8 °F 64.0 °F 30.03 in East 6.0 mph 6.0 mph 79% 0.00 in WeatherDisplay:10.37 W/m2 OVC
00:50 70.9 °F 64.1 °F 30.02 in East 6.0 mph 6.0 mph 79% 0.00 in WeatherDisplay:10.37 W/m2 OVC
00:55 70.9 °F 64.1 °F 30.02 in East 6.0 mph 6.0 mph 79% 0.00 in WeatherDisplay:10.37 W/m2 OVC
01:00 70.9 °F 64.1 °F 30.02 in East 6.0 mph 6.0 mph 79% 0.00 in WeatherDisplay:10.37 W/m2 OVC
01:05 70.9 °F 64.1 °F 30.02 in East 6.0 mph 6.0 mph 79% 0.00 in WeatherDisplay:10.37 W/m2 OVC
01:10 71.0 °F 64.2 °F 30.02 in East 6.0 mph 6.0 mph 79% 0.00 in WeatherDisplay:10.37 W/m2 OVC
01:15 71.2 °F 64.7 °F 30.02 in ESE 6.0 mph 6.0 mph 80% 0.00 in WeatherDisplay:10.37 W/m2 BKN
01:20 71.3 °F 64.8 °F 30.02 in ESE 6.0 mph 6.0 mph 80% 0.00 in WeatherDisplay:10.37 W/m2 BKN
01:25 71.4 °F 64.9 °F 30.02 in ESE 12.0 mph 12.0 mph 80% 0.00 in WeatherDisplay:10.37 W/m2 SCT
01:30 71.6 °F 65.1 °F 30.01 in ESE 12.0 mph 12.0 mph 80% 0.00 in WeatherDisplay:10.37 W/m2 SCT
01:35 71.6 °F 65.1 °F 30.01 in ESE 12.0 mph 12.0 mph 80% 0.00 in WeatherDisplay:10.37 W/m2 SCT
01:40 71.7 °F 65.2 °F 30.01 in ESE 12.0 mph 12.0 mph 80% 0.00 in WeatherDisplay:10.37 W/m2 SCT
01:45 71.7 °F 65.2 °F 30.01 in ESE 12.0 mph 12.0 mph 80% 0.00 in WeatherDisplay:10.37 W/m2 SCT
01:50 71.8 °F 65.3 °F 30.01 in ESE 12.0 mph 12.0 mph 80% 0.00 in WeatherDisplay:10.37 W/m2 SCT
01:55 72.0 °F 65.8 °F 30.01 in ESE 12.0 mph 12.0 mph 81% 0.00 in WeatherDisplay:10.37 W/m2 SCT
02:00 72.2 °F 66.0 °F 30.01 in ESE 12.0 mph 12.0 mph 81% 0.00 in WeatherDisplay:10.37 W/m2 SCT
02:05 72.2 °F 66.0 °F 30.01 in ESE 12.0 mph 12.0 mph 81% 0.00 in WeatherDisplay:10.37 W/m2 SCT
02:15 72.3 °F 66.1 °F 30.01 in ESE 12.0 mph 12.0 mph 81% 0.00 in WeatherDisplay:10.37 W/m2 SCT
02:20 72.3 °F 66.1 °F 30.00 in ESE 12.0 mph 12.0 mph 81% 0.00 in WeatherDisplay:10.37 W/m2 SCT
02:25 72.4 °F 66.2 °F 30.00 in ESE 12.0 mph 12.0 mph 81% 0.00 in WeatherDisplay:10.37 W/m2 SCT
02:30 72.4 °F 66.2 °F 30.00 in ESE 12.0 mph 12.0 mph 81% 0.00 in WeatherDisplay:10.37 W/m2 SCT
02:40 72.4 °F 66.2 °F 30.00 in ESE 12.0 mph 12.0 mph 81% 0.00 in WeatherDisplay:10.37 W/m2 SCT
02:45 72.4 °F 66.6 °F 30.00 in ESE 10.0 mph 12.0 mph 82% 0.00 in WeatherDisplay:10.37 W/m2 BKN
02:50 72.4 °F 66.6 °F 30.00 in ESE 10.0 mph 10.0 mph 82% 0.00 in WeatherDisplay:10.37 W/m2 BKN
02:55 72.3 °F 66.5 °F 30.00 in ESE 10.0 mph 10.0 mph 82% 0.00 in WeatherDisplay:10.37 W/m2 BKN
03:05 72.3 °F 66.5 °F 30.00 in ESE 10.0 mph 10.0 mph 82% 0.00 in WeatherDisplay:10.37 W/m2 BKN
03:10 72.2 °F 66.8 °F 30.00 in ESE 10.0 mph 10.0 mph 83% 0.00 in WeatherDisplay:10.37 W/m2 BKN
03:15 72.2 °F 66.7 °F 30.00 in ESE 9.0 mph 10.0 mph 83% 0.00 in WeatherDisplay:10.37 W/m2 FEW
03:20 72.1 °F 67.0 °F 30.00 in ESE 9.0 mph 9.0 mph 84% 0.00 in WeatherDisplay:10.37 W/m2 FEW
03:30 72.0 °F 66.9 °F 29.99 in ESE 9.0 mph 9.0 mph 84% 0.00 in WeatherDisplay:10.37 W/m2 FEW
03:35 72.0 °F 67.2 °F 29.99 in ESE 9.0 mph 9.0 mph 85% 0.00 in WeatherDisplay:10.37 W/m2 FEW
03:40 72.0 °F 67.2 °F 29.99 in ESE 9.0 mph 9.0 mph 85% 0.00 in WeatherDisplay:10.37 W/m2 FEW
03:45 72.0 °F 67.2 °F 29.99 in ESE 9.0 mph 9.0 mph 85% 0.00 in WeatherDisplay:10.37 W/m2 FEW
03:50 72.0 °F 67.2 °F 29.99 in ESE 9.0 mph 9.0 mph 85% 0.00 in WeatherDisplay:10.37 W/m2 FEW
03:55 72.0 °F 67.2 °F 29.99 in ESE 9.0 mph 9.0 mph 85% 0.00 in WeatherDisplay:10.37 W/m2 FEW
04:00 71.9 °F 67.1 °F 29.99 in ESE 9.0 mph 9.0 mph 85% 0.00 in WeatherDisplay:10.37 W/m2 FEW
04:05 71.7 °F 67.0 °F 29.99 in ESE 9.0 mph 9.0 mph 85% 0.00 in WeatherDisplay:10.37 W/m2 FEW
04:10 71.6 °F 67.2 °F 29.99 in ESE 9.0 mph 9.0 mph 86% 0.00 in WeatherDisplay:10.37 W/m2 FEW
04:15 71.6 °F 67.2 °F 29.99 in ESE 10.0 mph 10.0 mph 86% 0.00 in WeatherDisplay:10.37 W/m2 OVC
04:20 71.6 °F 67.2 °F 29.99 in ESE 10.0 mph 10.0 mph 86% 0.00 in WeatherDisplay:10.37 W/m2 OVC
04:25 71.6 °F 67.2 °F 29.98 in ESE 10.0 mph 10.0 mph 86% 0.00 in WeatherDisplay:10.37 W/m2 OVC
04:30 71.6 °F 67.2 °F 29.98 in ESE 10.0 mph 10.0 mph 86% 0.00 in WeatherDisplay:10.37 W/m2 OVC
04:35 71.6 °F 67.2 °F 29.98 in ESE 10.0 mph 10.0 mph 86% 0.00 in WeatherDisplay:10.37 W/m2 OVC
04:40 71.6 °F 67.2 °F 29.98 in ESE 10.0 mph 10.0 mph 86% 0.00 in WeatherDisplay:10.37 W/m2 OVC
04:45 71.6 °F 67.2 °F 29.98 in ESE 10.0 mph 10.0 mph 86% 0.00 in WeatherDisplay:10.37 W/m2 OVC
04:50 71.6 °F 67.2 °F 29.98 in ESE 10.0 mph 10.0 mph 86% 0.00 in WeatherDisplay:10.37 W/m2 OVC
04:55 71.6 °F 67.2 °F 29.98 in ESE 10.0 mph 10.0 mph 86% 0.00 in WeatherDisplay:10.37 W/m2 OVC
05:00 71.6 °F 67.2 °F 29.98 in ESE 10.0 mph 10.0 mph 86% 0.00 in WeatherDisplay:10.37 W/m2 OVC
05:05 71.6 °F 67.2 °F 29.98 in ESE 10.0 mph 10.0 mph 86% 0.00 in WeatherDisplay:10.37 W/m2 OVC
05:10 71.6 °F 67.2 °F 29.98 in ESE 10.0 mph 10.0 mph 86% 0.00 in WeatherDisplay:10.37 W/m2 OVC
05:15 71.6 °F 67.2 °F 29.98 in ESE 8.0 mph 10.0 mph 86% 0.00 in WeatherDisplay:10.37 W/m2 OVC
05:20 71.6 °F 67.2 °F 29.99 in ESE 8.0 mph 8.0 mph 86% 0.00 in WeatherDisplay:10.37 W/m2 OVC
05:25 71.6 °F 67.5 °F 29.99 in ESE 8.0 mph 8.0 mph 87% 0.00 in WeatherDisplay:10.37 W/m2 OVC
05:30 71.5 °F 67.4 °F 29.99 in ESE 8.0 mph 8.0 mph 87% 0.00 in WeatherDisplay:10.37 W/m2 OVC
05:35 71.5 °F 67.4 °F 29.99 in ESE 8.0 mph 8.0 mph 87% 0.00 in WeatherDisplay:10.37 W/m2 OVC
05:40 71.5 °F 67.4 °F 29.99 in ESE 8.0 mph 8.0 mph 87% 0.00 in WeatherDisplay:10.37 W/m2 OVC
05:45 71.5 °F 67.4 °F 29.99 in ESE 8.0 mph 8.0 mph 87% 0.00 in WeatherDisplay:10.37 W/m2 OVC
05:50 71.5 °F 67.4 °F 29.99 in ESE 8.0 mph 8.0 mph 87% 0.00 in WeatherDisplay:10.37 W/m2 OVC
05:55 71.5 °F 67.4 °F 29.99 in ESE 8.0 mph 8.0 mph 87% 0.00 in WeatherDisplay:10.37 W/m2 OVC
06:00 71.5 °F 67.4 °F 29.99 in ESE 8.0 mph 8.0 mph 87% 0.00 in WeatherDisplay:10.37 W/m2 OVC
06:05 71.5 °F 67.4 °F 29.99 in ESE 8.0 mph 8.0 mph 87% 0.00 in WeatherDisplay:10.37 W/m2 OVC
06:10 71.5 °F 67.4 °F 29.99 in ESE 8.0 mph 8.0 mph 87% 0.00 in WeatherDisplay:10.37 W/m2 OVC
06:15 71.5 °F 67.4 °F 29.99 in ESE 8.0 mph 8.0 mph 87% 0.00 in WeatherDisplay:10.37 W/m2 OVC
06:20 71.5 °F 67.4 °F 30.00 in ESE 8.0 mph 8.0 mph 87% 0.00 in WeatherDisplay:10.37 W/m2 OVC
06:25 71.5 °F 67.4 °F 29.99 in ESE 8.0 mph 8.0 mph 87% 0.00 in WeatherDisplay:10.37 W/m2 OVC
06:30 71.4 °F 67.3 °F 29.99 in ESE 8.0 mph 8.0 mph 87% 0.00 in WeatherDisplay:10.37 W/m2 OVC
06:35 71.4 °F 67.3 °F 29.99 in ESE 8.0 mph 8.0 mph 87% 0.00 in WeatherDisplay:10.37 W/m2 OVC
06:40 71.4 °F 67.3 °F 29.99 in ESE 8.0 mph 8.0 mph 87% 0.00 in WeatherDisplay:10.37 W/m2 OVC
06:45 71.4 °F 67.3 °F 30.00 in ESE 8.0 mph 8.0 mph 87% 0.00 in WeatherDisplay:10.37 W/m2 OVC
06:50 71.4 °F 67.3 °F 30.00 in ESE 8.0 mph 8.0 mph 87% 0.00 in WeatherDisplay:10.37 W/m2 OVC
06:55 71.4 °F 67.3 °F 30.00 in ESE 6.0 mph 8.0 mph 87% 0.00 in WeatherDisplay:10.37 W/m2 OVC
07:00 71.4 °F 67.3 °F 30.00 in ESE 6.0 mph 6.0 mph 87% 0.00 in WeatherDisplay:10.37 W/m2 OVC
07:05 71.3 °F 67.2 °F 30.00 in ESE 6.0 mph 6.0 mph 87% 0.00 in WeatherDisplay:10.37 W/m2 OVC
07:10 71.3 °F 67.2 °F 30.00 in ESE 6.0 mph 6.0 mph 87% 0.00 in WeatherDisplay:10.37 W/m2 OVC
07:15 71.3 °F 67.2 °F 30.00 in SE 12.0 mph 12.0 mph 87% 0.00 in WeatherDisplay:10.37 W/m2 OVC
07:20 71.3 °F 67.6 °F 30.00 in SE 12.0 mph 12.0 mph 88% 0.00 in WeatherDisplay:10.37 W/m2 OVC
07:25 71.3 °F 67.6 °F 30.01 in SE 12.0 mph 12.0 mph 88% 0.00 in WeatherDisplay:10.37 W/m2 OVC
07:30 71.3 °F 67.5 °F 30.00 in SE 12.0 mph 12.0 mph 88% 0.00 in WeatherDisplay:10.37 W/m2 OVC
07:40 71.2 °F 67.5 °F 30.01 in SE 12.0 mph 12.0 mph 88% 0.00 in WeatherDisplay:10.37 W/m2 OVC
07:45 71.2 °F 67.5 °F 30.01 in SE 12.0 mph 12.0 mph 88% 0.00 in WeatherDisplay:10.37 W/m2 OVC
07:50 71.2 °F 67.5 °F 30.01 in SE 12.0 mph 12.0 mph 88% 0.00 in WeatherDisplay:10.37 W/m2 OVC
07:55 71.1 °F 67.4 °F 30.01 in SE 12.0 mph 12.0 mph 88% 0.00 in WeatherDisplay:10.37 W/m2 OVC
08:00 71.1 °F 67.7 °F 30.01 in SE 12.0 mph 12.0 mph 89% 0.00 in WeatherDisplay:10.37 W/m2 OVC
08:05 71.0 °F 67.6 °F 30.02 in SE 12.0 mph 12.0 mph 89% 0.00 in WeatherDisplay:10.37 W/m2 OVC
08:10 70.9 °F 67.8 °F 30.02 in SE 12.0 mph 12.0 mph 90% 0.00 in WeatherDisplay:10.37 W/m2 OVC
08:15 70.8 °F 67.7 °F 30.02 in ESE 7.0 mph 12.0 mph 90% 0.00 in WeatherDisplay:10.37 W/m2 OVC
08:20 70.8 °F 67.7 °F 30.02 in East 7.0 mph 7.0 mph 90% 0.00 in WeatherDisplay:10.37 W/m2 OVC
08:25 70.8 °F 67.7 °F 30.02 in ESE 8.0 mph 8.0 mph 90% 0.00 in WeatherDisplay:10.37 W/m2 -DZ
08:35 70.7 °F 67.7 °F 30.03 in ESE 8.0 mph 8.0 mph 90% 0.00 in WeatherDisplay:10.37 W/m2 -DZ
08:40 70.7 °F 67.9 °F 30.03 in ESE 8.0 mph 8.0 mph 91% 0.00 in WeatherDisplay:10.37 W/m2 -DZ
08:45 70.7 °F 67.9 °F 30.03 in ESE 7.0 mph 8.0 mph 91% 0.00 in WeatherDisplay:10.37 W/m2 OVC
08:50 70.7 °F 67.9 °F 30.03 in ESE 7.0 mph 7.0 mph 91% 0.00 in WeatherDisplay:10.37 W/m2 OVC
08:55 70.8 °F 68.0 °F 30.03 in ESE 7.0 mph 7.0 mph 91% 0.00 in WeatherDisplay:10.37 W/m2 OVC
09:00 70.8 °F 68.0 °F 30.03 in ESE 7.0 mph 7.0 mph 91% 0.00 in WeatherDisplay:10.37 W/m2 OVC
09:10 70.9 °F 68.1 °F 30.03 in ESE 7.0 mph 7.0 mph 91% 0.00 in WeatherDisplay:10.37 W/m2 OVC
09:15 71.0 °F 68.2 °F 30.03 in ESE 7.0 mph 7.0 mph 91% 0.00 in WeatherDisplay:10.37 W/m2 OVC
09:20 71.1 °F 68.3 °F 30.03 in East 7.0 mph 7.0 mph 91% 0.00 in WeatherDisplay:10.37 W/m2 OVC
09:25 71.1 °F 68.4 °F 30.03 in East 8.0 mph 8.0 mph 91% 0.00 in WeatherDisplay:10.37 W/m2 -DZ
09:30 71.2 °F 68.4 °F 30.03 in East 8.0 mph 8.0 mph 91% 0.00 in WeatherDisplay:10.37 W/m2 -DZ
09:40 71.6 °F 68.5 °F 30.04 in East 8.0 mph 8.0 mph 90% 0.00 in WeatherDisplay:10.37 W/m2 -DZ
09:45 71.7 °F 68.6 °F 30.04 in East 8.0 mph 8.0 mph 90% 0.00 in WeatherDisplay:10.37 W/m2 -DZ
09:50 71.9 °F 68.8 °F 30.04 in East 8.0 mph 8.0 mph 90% 0.00 in WeatherDisplay:10.37 W/m2 -DZ
09:55 72.0 °F 68.6 °F 30.04 in East 8.0 mph 8.0 mph 89% 0.00 in WeatherDisplay:10.37 W/m2 -DZ
10:00 72.1 °F 68.7 °F 30.04 in East 8.0 mph 8.0 mph 89% 0.00 in WeatherDisplay:10.37 W/m2 -DZ
10:05 72.2 °F 68.8 °F 30.04 in East 8.0 mph 8.0 mph 89% 0.00 in WeatherDisplay:10.37 W/m2 -DZ
10:10 72.3 °F 68.9 °F 30.04 in East 8.0 mph 8.0 mph 89% 0.00 in WeatherDisplay:10.37 W/m2 -DZ
10:15 72.4 °F 69.0 °F 30.04 in East 9.0 mph 9.0 mph 89% 0.00 in WeatherDisplay:10.37 W/m2 OVC
10:20 72.4 °F 69.0 °F 30.04 in East 9.0 mph 9.0 mph 89% 0.00 in WeatherDisplay:10.37 W/m2 OVC
10:25 72.6 °F 69.1 °F 30.04 in East 9.0 mph 9.0 mph 89% 0.00 in WeatherDisplay:10.37 W/m2 OVC
10:30 72.7 °F 68.9 °F 30.04 in East 9.0 mph 9.0 mph 88% 0.00 in WeatherDisplay:10.37 W/m2 OVC
10:35 72.8 °F 69.1 °F 30.04 in East 9.0 mph 9.0 mph 88% 0.00 in WeatherDisplay:10.37 W/m2 OVC
10:40 72.9 °F 69.1 °F 30.04 in East 9.0 mph 9.0 mph 88% 0.00 in WeatherDisplay:10.37 W/m2 OVC
10:45 72.9 °F 69.1 °F 30.04 in East 9.0 mph 9.0 mph 88% 0.00 in WeatherDisplay:10.37 W/m2 OVC
10:50 73.0 °F 69.2 °F 30.03 in East 9.0 mph 9.0 mph 88% 0.00 in WeatherDisplay:10.37 W/m2 OVC
10:55 73.1 °F 69.3 °F 30.04 in East 9.0 mph 9.0 mph 88% 0.00 in WeatherDisplay:10.37 W/m2 OVC
11:00 73.3 °F 69.5 °F 30.03 in East 9.0 mph 9.0 mph 88% 0.00 in WeatherDisplay:10.37 W/m2 OVC
11:05 73.4 °F 69.3 °F 30.03 in East 9.0 mph 9.0 mph 87% 0.00 in WeatherDisplay:10.37 W/m2 OVC
11:10 73.5 °F 69.4 °F 30.03 in East 9.0 mph 9.0 mph 87% 0.00 in WeatherDisplay:10.37 W/m2 OVC
11:15 73.6 °F 69.5 °F 30.03 in ESE 9.0 mph 9.0 mph 87% 0.00 in WeatherDisplay:10.37 W/m2 OVC
11:20 73.8 °F 69.3 °F 30.03 in ESE 9.0 mph 9.0 mph 86% 0.00 in WeatherDisplay:10.37 W/m2 OVC
11:25 74.0 °F 69.5 °F 30.03 in SE 10.0 mph 10.0 mph 86% 0.00 in WeatherDisplay:10.37 W/m2 OVC
11:30 74.0 °F 69.5 °F 30.03 in SE 10.0 mph 10.0 mph 86% 0.00 in WeatherDisplay:10.37 W/m2 OVC
11:35 74.1 °F 69.3 °F 30.04 in SE 10.0 mph 10.0 mph 85% 0.00 in WeatherDisplay:10.37 W/m2 OVC
11:40 74.3 °F 69.5 °F 30.04 in SE 10.0 mph 10.0 mph 85% 0.00 in WeatherDisplay:10.37 W/m2 OVC
11:45 74.4 °F 69.6 °F 30.03 in SE 10.0 mph 10.0 mph 85% 0.00 in WeatherDisplay:10.37 W/m2 OVC
11:50 74.5 °F 69.7 °F 30.04 in SE 10.0 mph 10.0 mph 85% 0.00 in WeatherDisplay:10.37 W/m2 OVC
11:55 74.6 °F 69.8 °F 30.04 in SE 10.0 mph 10.0 mph 85% 0.00 in WeatherDisplay:10.37 W/m2 OVC
12:00 74.8 °F 69.6 °F 30.03 in SE 10.0 mph 10.0 mph 84% 0.00 in WeatherDisplay:10.37 W/m2 OVC
12:05 74.8 °F 69.6 °F 30.04 in SE 10.0 mph 10.0 mph 84% 0.00 in WeatherDisplay:10.37 W/m2 OVC
12:10 74.8 °F 69.6 °F 30.04 in SE 10.0 mph 10.0 mph 84% 0.00 in WeatherDisplay:10.37 W/m2 OVC
12:15 74.8 °F 69.6 °F 30.03 in SE 7.0 mph 10.0 mph 84% 0.00 in WeatherDisplay:10.37 W/m2 OVC
12:20 74.9 °F 69.4 °F 30.03 in SE 7.0 mph 7.0 mph 83% 0.00 in WeatherDisplay:10.37 W/m2 OVC
12:25 75.1 °F 69.9 °F 30.03 in SE 7.0 mph 7.0 mph 84% 0.00 in WeatherDisplay:10.37 W/m2 OVC
12:30 75.3 °F 70.1 °F 30.03 in SE 7.0 mph 7.0 mph 84% 0.00 in WeatherDisplay:10.37 W/m2 OVC
12:35 75.6 °F 70.1 °F 30.03 in SE 7.0 mph 7.0 mph 83% 0.00 in WeatherDisplay:10.37 W/m2 OVC
12:40 75.9 °F 70.0 °F 30.02 in SE 7.0 mph 7.0 mph 82% 0.00 in WeatherDisplay:10.37 W/m2 OVC
12:45 76.0 °F 70.1 °F 30.02 in SE 7.0 mph 7.0 mph 82% 0.00 in WeatherDisplay:10.37 W/m2 OVC
12:50 76.7 °F 70.4 °F 30.01 in SE 7.0 mph 7.0 mph 81% 0.00 in WeatherDisplay:10.37 W/m2 OVC
12:55 77.7 °F 70.3 °F 30.02 in SE 7.0 mph 7.0 mph 78% 0.00 in WeatherDisplay:10.37 W/m2 OVC
13:00 78.0 °F 70.2 °F 30.01 in SE 7.0 mph 7.0 mph 77% 0.00 in WeatherDisplay:10.37 W/m2 OVC
13:05 78.1 °F 70.7 °F 30.01 in SE 7.0 mph 7.0 mph 78% 0.00 in WeatherDisplay:10.37 W/m2 OVC
13:10 78.0 °F 70.2 °F 30.01 in SE 7.0 mph 7.0 mph 77% 0.00 in WeatherDisplay:10.37 W/m2 OVC
13:15 78.0 °F 70.6 °F 30.01 in ESE 10.0 mph 10.0 mph 78% 0.00 in WeatherDisplay:10.37 W/m2 BKN
13:20 78.5 °F 70.7 °F 30.00 in East 10.0 mph 10.0 mph 77% 0.00 in WeatherDisplay:10.37 W/m2 BKN
13:30 79.3 °F 70.3 °F 30.00 in East 9.0 mph 9.0 mph 74% 0.00 in WeatherDisplay:10.37 W/m2 BKN
13:35 79.5 °F 70.5 °F 30.00 in East 9.0 mph 9.0 mph 74% 0.00 in WeatherDisplay:10.37 W/m2 BKN
13:40 79.1 °F 70.9 °F 30.00 in East 9.0 mph 9.0 mph 76% 0.00 in WeatherDisplay:10.37 W/m2 BKN
13:45 79.0 °F 70.4 °F 30.00 in ESE 10.0 mph 10.0 mph 75% 0.00 in WeatherDisplay:10.37 W/m2 BKN
13:50 79.2 °F 70.5 °F 30.00 in SE 10.0 mph 10.0 mph 75% 0.00 in WeatherDisplay:10.37 W/m2 BKN
14:00 79.3 °F 70.3 °F 29.99 in SE 10.0 mph 10.0 mph 74% 0.00 in WeatherDisplay:10.37 W/m2 BKN
14:05 79.8 °F 71.1 °F 29.99 in SE 10.0 mph 10.0 mph 75% 0.00 in WeatherDisplay:10.37 W/m2 BKN
14:10 80.0 °F 70.6 °F 29.98 in SE 10.0 mph 10.0 mph 73% 0.00 in WeatherDisplay:10.37 W/m2 BKN
14:15 79.8 °F 70.4 °F 29.98 in SE 10.0 mph 10.0 mph 73% 0.00 in WeatherDisplay:10.37 W/m2 BKN
14:20 79.9 °F 70.9 °F 29.98 in ESE 10.0 mph 10.0 mph 74% 0.00 in WeatherDisplay:10.37 W/m2 BKN
14:25 80.4 °F 70.2 °F 29.98 in ESE 10.0 mph 10.0 mph 71% 0.00 in WeatherDisplay:10.37 W/m2 BKN
14:30 80.3 °F 70.4 °F 29.97 in ESE 10.0 mph 10.0 mph 72% 0.00 in WeatherDisplay:10.37 W/m2 BKN
14:35 79.9 °F 70.1 °F 29.97 in ESE 10.0 mph 10.0 mph 72% 0.00 in WeatherDisplay:10.37 W/m2 BKN
14:40 79.9 °F 70.1 °F 29.97 in ESE 10.0 mph 10.0 mph 72% 0.00 in WeatherDisplay:10.37 W/m2 BKN
14:45 80.2 °F 70.3 °F 29.97 in ESE 10.0 mph 10.0 mph 72% 0.00 in WeatherDisplay:10.37 W/m2 BKN
14:50 80.6 °F 69.9 °F 29.98 in ESE 10.0 mph 10.0 mph 70% 0.00 in WeatherDisplay:10.37 W/m2 BKN
14:55 80.9 °F 70.2 °F 29.97 in ESE 10.0 mph 10.0 mph 70% 0.00 in WeatherDisplay:10.37 W/m2 BKN
15:00 80.7 °F 70.4 °F 29.97 in ESE 10.0 mph 10.0 mph 71% 0.00 in WeatherDisplay:10.37 W/m2 BKN
15:10 79.9 °F 70.5 °F 29.97 in ESE 10.0 mph 10.0 mph 73% 0.00 in WeatherDisplay:10.37 W/m2 BKN
15:15 79.6 °F 70.2 °F 29.97 in ESE 10.0 mph 10.0 mph 73% 0.00 in WeatherDisplay:10.37 W/m2 OVC
15:20 79.5 °F 70.5 °F 29.96 in ESE 10.0 mph 10.0 mph 74% 0.00 in WeatherDisplay:10.37 W/m2 OVC
15:25 79.7 °F 70.7 °F 29.96 in ESE 10.0 mph 10.0 mph 74% 0.00 in WeatherDisplay:10.37 W/m2 OVC
15:30 80.1 °F 70.7 °F 29.96 in ESE 10.0 mph 10.0 mph 73% 0.00 in WeatherDisplay:10.37 W/m2 OVC
15:35 80.3 °F 70.9 °F 29.96 in ESE 10.0 mph 10.0 mph 73% 0.00 in WeatherDisplay:10.37 W/m2 OVC
15:40 80.3 °F 70.0 °F 29.96 in ESE 10.0 mph 10.0 mph 71% 0.00 in WeatherDisplay:10.37 W/m2 OVC
15:45 80.1 °F 69.4 °F 29.96 in ESE 10.0 mph 10.0 mph 70% 0.00 in WeatherDisplay:10.37 W/m2 OVC
15:55 79.8 °F 70.4 °F 29.95 in ESE 10.0 mph 10.0 mph 73% 0.00 in WeatherDisplay:10.37 W/m2 OVC
16:00 79.7 °F 70.3 °F 29.95 in ESE 10.0 mph 10.0 mph 73% 0.00 in WeatherDisplay:10.37 W/m2 OVC
16:05 79.7 °F 70.3 °F 29.95 in ESE 10.0 mph 10.0 mph 73% 0.00 in WeatherDisplay:10.37 W/m2 OVC
16:10 79.6 °F 70.2 °F 29.95 in ESE 10.0 mph 10.0 mph 73% 0.00 in WeatherDisplay:10.37 W/m2 OVC
16:15 79.5 °F 70.5 °F 29.95 in SE 9.0 mph 10.0 mph 74% 0.00 in WeatherDisplay:10.37 W/m2 OVC
16:20 79.5 °F 70.4 °F 29.95 in SE 9.0 mph 9.0 mph 74% 0.00 in WeatherDisplay:10.37 W/m2 OVC
16:25 79.5 °F 70.1 °F 29.95 in SE 9.0 mph 9.0 mph 73% 0.00 in WeatherDisplay:10.37 W/m2 OVC
16:30 79.5 °F 70.5 °F 29.95 in SE 9.0 mph 9.0 mph 74% 0.00 in WeatherDisplay:10.37 W/m2 OVC
16:35 79.5 °F 70.5 °F 29.95 in SE 9.0 mph 9.0 mph 74% 0.00 in WeatherDisplay:10.37 W/m2 OVC
16:40 79.4 °F 70.4 °F 29.95 in SE 9.0 mph 9.0 mph 74% 0.00 in WeatherDisplay:10.37 W/m2 OVC
16:45 79.3 °F 70.3 °F 29.95 in SE 9.0 mph 9.0 mph 74% 0.00 in WeatherDisplay:10.37 W/m2 OVC
16:50 79.2 °F 70.6 °F 29.95 in SE 9.0 mph 9.0 mph 75% 0.00 in WeatherDisplay:10.37 W/m2 OVC
16:55 79.1 °F 70.5 °F 29.95 in SE 9.0 mph 9.0 mph 75% 0.00 in WeatherDisplay:10.37 W/m2 OVC
17:00 79.0 °F 70.4 °F 29.95 in SE 9.0 mph 9.0 mph 75% 0.00 in WeatherDisplay:10.37 W/m2 OVC
17:05 78.8 °F 70.6 °F 29.94 in SE 9.0 mph 9.0 mph 76% 0.00 in WeatherDisplay:10.37 W/m2 OVC
17:10 78.6 °F 70.4 °F 29.94 in SE 9.0 mph 9.0 mph 76% 0.00 in WeatherDisplay:10.37 W/m2 OVC
17:15 78.5 °F 70.3 °F 29.94 in SE 9.0 mph 9.0 mph 76% 0.00 in WeatherDisplay:10.37 W/m2 OVC
17:20 78.3 °F 70.1 °F 29.94 in ESE 9.0 mph 9.0 mph 76% 0.00 in WeatherDisplay:10.37 W/m2 OVC
17:25 78.2 °F 70.4 °F 29.94 in ESE 9.0 mph 9.0 mph 77% 0.00 in WeatherDisplay:10.37 W/m2 OVC
17:30 78.1 °F 70.3 °F 29.93 in ESE 9.0 mph 9.0 mph 77% 0.00 in WeatherDisplay:10.37 W/m2 OVC
17:35 78.1 °F 70.3 °F 29.93 in ESE 9.0 mph 9.0 mph 77% 0.00 in WeatherDisplay:10.37 W/m2 OVC
17:40 78.1 °F 70.3 °F 29.93 in ESE 9.0 mph 9.0 mph 77% 0.00 in WeatherDisplay:10.37 W/m2 OVC
17:45 78.1 °F 70.3 °F 29.93 in ESE 9.0 mph 9.0 mph 77% 0.00 in WeatherDisplay:10.37 W/m2 OVC
17:50 78.0 °F 70.2 °F 29.93 in ESE 9.0 mph 9.0 mph 77% 0.00 in WeatherDisplay:10.37 W/m2 OVC
17:55 78.0 °F 70.2 °F 29.92 in ESE 9.0 mph 9.0 mph 77% 0.00 in WeatherDisplay:10.37 W/m2 OVC
18:00 77.9 °F 70.5 °F 29.92 in ESE 9.0 mph 9.0 mph 78% 0.00 in WeatherDisplay:10.37 W/m2 OVC
18:05 77.8 °F 70.4 °F 29.92 in ESE 9.0 mph 9.0 mph 78% 0.00 in WeatherDisplay:10.37 W/m2 OVC
18:10 77.6 °F 70.2 °F 29.92 in ESE 9.0 mph 9.0 mph 78% 0.00 in WeatherDisplay:10.37 W/m2 OVC
18:15 77.5 °F 70.1 °F 29.92 in ESE 12.0 mph 12.0 mph 78% 0.00 in WeatherDisplay:10.37 W/m2 OVC
18:20 77.4 °F 70.3 °F 29.93 in East 12.0 mph 12.0 mph 79% 0.00 in WeatherDisplay:10.37 W/m2 OVC
18:25 77.2 °F 70.2 °F 29.93 in East 12.0 mph 12.0 mph 79% 0.00 in WeatherDisplay:10.37 W/m2 OVC
18:30 77.1 °F 70.1 °F 29.93 in East 12.0 mph 12.0 mph 79% 0.00 in WeatherDisplay:10.37 W/m2 OVC
18:35 77.0 °F 70.0 °F 29.93 in East 12.0 mph 12.0 mph 79% 0.00 in WeatherDisplay:10.37 W/m2 OVC
18:40 76.9 °F 69.9 °F 29.93 in East 12.0 mph 12.0 mph 79% 0.00 in WeatherDisplay:10.37 W/m2 OVC
18:45 76.9 °F 70.2 °F 29.93 in East 12.0 mph 12.0 mph 80% 0.00 in WeatherDisplay:10.37 W/m2 OVC
18:50 76.8 °F 70.2 °F 29.93 in East 12.0 mph 12.0 mph 80% 0.00 in WeatherDisplay:10.37 W/m2 OVC
18:55 76.7 °F 70.1 °F 29.93 in East 12.0 mph 12.0 mph 80% 0.00 in WeatherDisplay:10.37 W/m2 OVC
19:05 76.5 °F 69.9 °F 29.93 in East 12.0 mph 12.0 mph 80% 0.00 in WeatherDisplay:10.37 W/m2 OVC
19:10 76.4 °F 70.1 °F 29.93 in East 12.0 mph 12.0 mph 81% 0.00 in WeatherDisplay:10.37 W/m2 OVC
19:15 76.3 °F 70.0 °F 29.93 in East 12.0 mph 12.0 mph 81% 0.00 in WeatherDisplay:10.37 W/m2 OVC
19:20 76.2 °F 69.9 °F 29.93 in East 12.0 mph 12.0 mph 81% 0.00 in WeatherDisplay:10.37 W/m2 OVC
19:25 76.1 °F 70.2 °F 29.94 in East 12.0 mph 12.0 mph 82% 0.00 in WeatherDisplay:10.37 W/m2 OVC
19:30 76.0 °F 70.1 °F 29.93 in East 12.0 mph 12.0 mph 82% 0.00 in WeatherDisplay:10.37 W/m2 OVC
19:35 76.0 °F 70.1 °F 29.93 in East 12.0 mph 12.0 mph 82% 0.00 in WeatherDisplay:10.37 W/m2 OVC
19:45 75.8 °F 69.9 °F 29.92 in East 12.0 mph 12.0 mph 82% 0.00 in WeatherDisplay:10.37 W/m2 OVC
19:50 75.7 °F 69.8 °F 29.92 in East 12.0 mph 12.0 mph 82% 0.00 in WeatherDisplay:10.37 W/m2 OVC
19:55 75.6 °F 70.1 °F 29.93 in East 12.0 mph 12.0 mph 83% 0.00 in WeatherDisplay:10.37 W/m2 OVC
20:00 75.5 °F 70.0 °F 29.93 in East 12.0 mph 12.0 mph 83% 0.00 in WeatherDisplay:10.37 W/m2 OVC
20:05 75.5 °F 70.0 °F 29.94 in East 12.0 mph 12.0 mph 83% 0.00 in WeatherDisplay:10.37 W/m2 OVC
20:10 75.5 °F 70.0 °F 29.94 in East 12.0 mph 12.0 mph 83% 0.00 in WeatherDisplay:10.37 W/m2 OVC
20:15 75.4 °F 69.9 °F 29.94 in East 9.0 mph 12.0 mph 83% 0.00 in WeatherDisplay:10.37 W/m2 OVC
20:20 75.3 °F 69.8 °F 29.95 in East 9.0 mph 9.0 mph 83% 0.00 in WeatherDisplay:10.37 W/m2 OVC
20:25 75.3 °F 70.1 °F 29.95 in East 9.0 mph 9.0 mph 84% 0.00 in WeatherDisplay:10.37 W/m2 OVC
20:30 75.1 °F 69.9 °F 29.95 in East 9.0 mph 9.0 mph 84% 0.00 in WeatherDisplay:10.37 W/m2 OVC
20:35 75.1 °F 69.9 °F 29.94 in East 9.0 mph 9.0 mph 84% 0.00 in WeatherDisplay:10.37 W/m2 OVC
20:40 75.0 °F 69.8 °F 29.95 in East 9.0 mph 9.0 mph 84% 0.00 in WeatherDisplay:10.37 W/m2 OVC
20:45 74.9 °F 69.7 °F 29.95 in East 9.0 mph 9.0 mph 84% 0.00 in WeatherDisplay:10.37 W/m2 OVC
20:50 74.9 °F 70.1 °F 29.95 in East 9.0 mph 9.0 mph 85% 0.00 in WeatherDisplay:10.37 W/m2 OVC
20:55 74.8 °F 70.0 °F 29.95 in East 9.0 mph 9.0 mph 85% 0.00 in WeatherDisplay:10.37 W/m2 OVC
21:00 74.8 °F 70.0 °F 29.95 in East 9.0 mph 9.0 mph 85% 0.00 in WeatherDisplay:10.37 W/m2 OVC
21:05 74.8 °F 70.0 °F 29.95 in East 9.0 mph 9.0 mph 85% 0.00 in WeatherDisplay:10.37 W/m2 OVC
21:10 74.8 °F 70.0 °F 29.95 in East 9.0 mph 9.0 mph 85% 0.00 in WeatherDisplay:10.37 W/m2 OVC
21:15 74.7 °F 69.9 °F 29.95 in East 10.0 mph 10.0 mph 85% 0.00 in WeatherDisplay:10.37 W/m2 OVC
21:20 74.7 °F 69.9 °F 29.95 in East 10.0 mph 10.0 mph 85% 0.00 in WeatherDisplay:10.37 W/m2 OVC
21:25 74.7 °F 69.9 °F 29.95 in East 10.0 mph 10.0 mph 85% 0.00 in WeatherDisplay:10.37 W/m2 OVC
21:30 74.7 °F 69.9 °F 29.95 in East 10.0 mph 10.0 mph 85% 0.00 in WeatherDisplay:10.37 W/m2 OVC
21:35 74.6 °F 69.8 °F 29.95 in East 10.0 mph 10.0 mph 85% 0.00 in WeatherDisplay:10.37 W/m2 OVC
21:45 74.6 °F 69.8 °F 29.96 in East 10.0 mph 10.0 mph 85% 0.00 in WeatherDisplay:10.37 W/m2 OVC
21:50 74.5 °F 69.7 °F 29.96 in East 10.0 mph 10.0 mph 85% 0.00 in WeatherDisplay:10.37 W/m2 OVC
21:55 74.5 °F 69.7 °F 29.96 in East 10.0 mph 10.0 mph 85% 0.00 in WeatherDisplay:10.37 W/m2 OVC
22:00 74.4 °F 69.9 °F 29.96 in East 10.0 mph 10.0 mph 86% 0.00 in WeatherDisplay:10.37 W/m2 OVC
22:05 74.5 °F 69.7 °F 29.96 in East 10.0 mph 10.0 mph 85% 0.00 in WeatherDisplay:10.37 W/m2 OVC
22:10 74.5 °F 69.7 °F 29.96 in East 10.0 mph 10.0 mph 85% 0.00 in WeatherDisplay:10.37 W/m2 OVC
22:15 74.5 °F 69.7 °F 29.96 in East 10.0 mph 10.0 mph 85% 0.00 in WeatherDisplay:10.37 W/m2 OVC
22:20 74.5 °F 69.7 °F 29.96 in East 10.0 mph 10.0 mph 85% 0.00 in WeatherDisplay:10.37 W/m2 OVC
22:25 74.4 °F 70.0 °F 29.96 in East 10.0 mph 10.0 mph 86% 0.00 in WeatherDisplay:10.37 W/m2 OVC
22:30 74.4 °F 69.9 °F 29.96 in East 10.0 mph 10.0 mph 86% 0.00 in WeatherDisplay:10.37 W/m2 OVC
22:40 74.2 °F 69.7 °F 29.96 in East 10.0 mph 10.0 mph 86% 0.00 in WeatherDisplay:10.37 W/m2 OVC
22:45 74.1 °F 69.7 °F 29.96 in East 10.0 mph 10.0 mph 86% 0.00 in WeatherDisplay:10.37 W/m2 OVC
22:50 74.1 °F 69.6 °F 29.96 in East 10.0 mph 10.0 mph 86% 0.00 in WeatherDisplay:10.37 W/m2 OVC
22:55 74.1 °F 70.0 °F 29.96 in East 10.0 mph 10.0 mph 87% 0.00 in WeatherDisplay:10.37 W/m2 OVC
23:00 74.0 °F 69.9 °F 29.96 in East 10.0 mph 10.0 mph 87% 0.00 in WeatherDisplay:10.37 W/m2 OVC
23:05 74.0 °F 69.9 °F 29.96 in East 10.0 mph 10.0 mph 87% 0.00 in WeatherDisplay:10.37 W/m2 OVC
23:10 74.0 °F 69.9 °F 29.96 in East 10.0 mph 10.0 mph 87% 0.00 in WeatherDisplay:10.37 W/m2 OVC
23:15 74.0 °F 69.9 °F 29.96 in East 8.0 mph 10.0 mph 87% 0.00 in WeatherDisplay:10.37 W/m2 OVC
23:20 74.0 °F 69.6 °F 29.96 in East 8.0 mph 8.0 mph 86% 0.00 in WeatherDisplay:10.37 W/m2 OVC
23:25 74.1 °F 69.6 °F 29.96 in East 8.0 mph 8.0 mph 86% 0.00 in WeatherDisplay:10.37 W/m2 OVC
23:30 74.1 °F 69.6 °F 29.96 in East 8.0 mph 8.0 mph 86% 0.00 in WeatherDisplay:10.37 W/m2 OVC
23:35 74.0 °F 69.9 °F 29.96 in East 8.0 mph 8.0 mph 87% 0.00 in WeatherDisplay:10.37 W/m2 OVC
23:40 74.1 °F 69.9 °F 29.96 in East 8.0 mph 8.0 mph 87% 0.00 in WeatherDisplay:10.37 W/m2 OVC
23:45 74.1 °F 70.0 °F 29.96 in East 8.0 mph 8.0 mph 87% 0.00 in WeatherDisplay:10.37 W/m2 OVC
23:50 74.1 °F 70.0 °F 29.96 in East 8.0 mph 8.0 mph 87% 0.00 in WeatherDisplay:10.37 W/m2 OVC
23:55 74.1 °F 70.0 °F 29.96 in East 8.0 mph 8.0 mph 87% 0.00 in WeatherDisplay:10.37 W/m2 OVC
Piedmont Bend
Compliments of Weather Underground - 4 mb